This demonstration page uses our WeatherBlox Daily Observations layout. Learn more.

Left ArrowRight Arrow

Hourly Observations for January 18, 2017

Temp ( °F °C ) Dew Point ( °F °C ) Humidity (%) Winds ( mph kmh ) Pressure ( in mb ) Visibility ( mi km ) Precip ( " mm )
12:15 am 00:15 Cloudy 37 3 36 2 93 93 WNW 15 24 30.12 1020 7 11 N/A
12:35 am 00:35 Cloudy 37 3 34 1 87 87 W 14 22 30.12 1020 10 16 N/A
12:55 am 00:55 Cloudy 36 2 34 1 93 93 W 15 24 30.12 1020 10 16 N/A
1:16 am 01:16 Cloudy 36 2 34 1 93 93 WNW 17 28 30.12 1020 7 11 N/A
1:35 am 01:35 Cloudy 36 2 34 1 93 93 W 14 22 30.12 1020 4 6 N/A
1:55 am 01:55 Cloudy 36 2 34 1 93 93 W 15 24 30.12 1020 7 11 N/A
2:15 am 02:15 Cloudy 36 2 34 1 93 93 W 13 20 30.15 1021 3 5 N/A
2:35 am 02:35 Cloudy 36 2 34 1 93 93 W 13 20 30.15 1021 7 11 N/A
2:56 am 02:56 Cloudy 36 2 34 1 93 93 W 15 24 30.15 1021 10 16 N/A
3:15 am 03:15 Cloudy 36 2 34 1 93 93 W 14 22 30.15 1021 10 16 N/A
3:35 am 03:35 Cloudy 36 2 34 1 93 93 W 10 17 30.15 1021 5 8 N/A
3:56 am 03:56 Cloudy 36 2 34 1 93 93 W 10 17 30.18 1022 7 11 N/A
4:15 am 04:15 Cloudy 36 2 34 1 93 93 W 10 17 30.18 1022 10 16 N/A
4:35 am 04:35 Cloudy 36 2 34 1 93 93 W 13 20 30.18 1022 10 16 N/A
4:55 am 04:55 Cloudy 36 2 34 1 93 93 W 15 24 30.18 1022 10 16 N/A
5:15 am 05:15 Cloudy 36 2 34 1 93 93 WNW 13 20 30.18 1022 10 16 N/A
5:36 am 05:36 Cloudy 36 2 34 1 93 93 WNW 13 20 30.18 1022 10 16 N/A
5:55 am 05:55 Cloudy 36 2 34 1 93 93 WNW 9 15 30.18 1022 10 16 N/A
6:15 am 06:15 Cloudy 36 2 34 1 93 93 W 13 20 30.18 1022 7 11 N/A
6:36 am 06:36 Cloudy 36 2 34 1 93 93 W 9 15 30.21 1023 10 16 N/A
6:55 am 06:55 Cloudy 36 2 34 1 93 93 WNW 15 24 30.21 1023 7 11 N/A
7:15 am 07:15 Cloudy 36 2 34 1 93 93 W 13 20 30.21 1023 10 16 N/A
7:35 am 07:35 Cloudy 36 2 34 1 93 93 W 16 26 30.21 1023 10 16 N/A
7:55 am 07:55 Cloudy 36 2 34 1 93 93 WNW 8 13 30.21 1023 7 11 N/A
8:16 am 08:16 Cloudy 36 2 32 undefined 87 87 WNW 13 20 30.21 1023 10 16 N/A
8:35 am 08:35 Cloudy 36 2 32 undefined 87 87 W 12 19 30.24 1024 10 16 N/A
8:55 am 08:55 Cloudy 36 2 32 undefined 87 87 W 10 17 30.24 1024 10 16 N/A
9:16 am 09:16 Cloudy 36 2 34 1 93 93 W 8 13 30.24 1024 7 11 N/A
9:35 am 09:35 Cloudy 36 2 34 1 93 93 W 8 13 30.24 1024 7 11 N/A
9:55 am 09:55 Cloudy 36 2 34 1 93 93 W 9 15 30.24 1024 7 11 N/A
10:16 am 10:16 Cloudy 36 2 34 1 93 93 W 10 17 30.24 1024 7 11 N/A
10:35 am 10:35 Cloudy 36 2 34 1 93 93 W 10 17 30.24 1024 5 8 N/A
10:55 am 10:55 Cloudy 34 1 34 1 100 100 W 9 15 30.24 1024 5 8 N/A
11:16 am 11:16 Cloudy 36 2 34 1 93 93 W 8 13 30.24 1024 5 8 N/A
11:35 am 11:35 Cloudy 36 2 34 1 93 93 W 7 11 30.24 1024 5 8 N/A
11:55 am 11:55 Cloudy 36 2 34 1 93 93 W 8 13 30.24 1024 7 11 N/A
12:16 pm 12:16 Cloudy 36 2 34 1 93 93 W 9 15 30.24 1024 7 11 N/A
12:35 pm 12:35 Cloudy 36 2 34 1 93 93 WSW 9 15 30.24 1024 4 6 N/A
12:55 pm 12:55 Cloudy 36 2 36 2 100 100 WSW 7 11 30.24 1024 3 4 N/A
1:16 pm 13:16 Cloudy 36 2 36 2 100 100 W 10 17 30.24 1024 3 4 N/A
1:35 pm 13:35 Cloudy 37 3 36 2 93 93 W 7 11 30.24 1024 5 8 N/A
1:55 pm 13:55 Cloudy 37 3 36 2 93 93 WSW 9 15 30.24 1024 7 11 N/A
2:15 pm 14:15 Cloudy 37 3 36 2 93 93 W 8 13 30.21 1023 7 11 N/A
2:35 pm 14:35 Cloudy 37 3 36 2 93 93 WSW 6 9 30.21 1023 7 11 N/A
2:55 pm 14:55 Cloudy 37 3 36 2 93 93 W 9 15 30.21 1023 10 16 N/A
3:15 pm 15:15 Cloudy 37 3 36 2 93 93 W 7 11 30.18 1022 10 16 N/A
3:35 pm 15:35 Cloudy 37 3 36 2 93 93 SW 7 11 30.18 1022 10 16 N/A
3:55 pm 15:55 Cloudy 37 3 36 2 93 93 WSW 8 13 30.18 1022 10 16 N/A
4:15 pm 16:15 Cloudy 37 3 36 2 93 93 SW 9 15 30.18 1022 7 11 N/A
4:35 pm 16:35 Cloudy 37 3 36 2 93 93 SW 9 15 30.18 1022 10 16 N/A
4:56 pm 16:56 Cloudy 37 3 36 2 93 93 WSW 10 17 30.18 1022 10 16 N/A
5:15 pm 17:15 Cloudy 37 3 36 2 93 93 SW 10 17 30.18 1022 10 16 N/A
5:35 pm 17:35 Cloudy 37 3 36 2 93 93 SW 9 15 30.18 1022 7 11 N/A
5:56 pm 17:56 Cloudy 37 3 36 2 93 93 SW 7 11 30.18 1022 10 16 N/A
6:15 pm 18:15 Cloudy 37 3 36 2 93 93 WSW 7 11 30.18 1022 10 16 N/A
6:35 pm 18:35 Cloudy 37 3 36 2 93 93 SW 8 13 30.18 1022 10 16 N/A
6:56 pm 18:56 Cloudy 36 2 36 2 100 100 SW 3 6 30.18 1022 7 11 N/A
7:15 pm 19:15 Cloudy 36 2 36 2 100 100 SSW 6 9 30.18 1022 7 11 N/A
7:36 pm 19:36 Cloudy 36 2 36 2 100 100 SW 8 13 30.21 1023 7 11 N/A
7:55 pm 19:55 Cloudy 36 2 36 2 100 100 SW 9 15 30.21 1023 7 11 N/A
8:15 pm 20:15 Cloudy 37 3 36 2 93 93 WSW 8 13 30.21 1023 7 11 N/A
8:36 pm 20:36 Cloudy 36 2 36 2 100 100 WSW 7 11 30.21 1023 7 11 N/A
8:55 pm 20:55 Cloudy 36 2 34 1 93 93 W 3 6 30.21 1023 10 16 N/A
9:15 pm 21:15 Cloudy 36 2 34 1 93 93 SSW 7 11 30.18 1022 10 16 N/A
9:36 pm 21:36 Cloudy 36 2 34 1 93 93 SSW 5 7 30.18 1022 10 16 N/A
9:55 pm 21:55 Cloudy 36 2 34 1 93 93 N N/A 30.18 1022 10 16 N/A
10:15 pm 22:15 Cloudy 36 2 34 1 93 93 SW 6 9 30.18 1022 10 16 N/A
10:36 pm 22:36 Cloudy 36 2 34 1 93 93 S 5 7 30.18 1022 10 16 N/A
10:55 pm 22:55 Cloudy 36 2 34 1 93 93 SW 3 6 30.18 1022 10 16 N/A
11:16 pm 23:16 Cloudy 36 2 34 1 93 93 S 6 9 30.18 1022 7 11 N/A
11:35 pm 23:35 Cloudy 36 2 34 1 93 93 WSW 5 7 30.18 1022 10 16 N/A
11:55 pm 23:55 Cloudy 36 2 34 1 93 93 SW 5 7 30.18 1022 10 16 N/A

Powered by AerisWeather